"startDT [UTC]","vpos","CH4 [ppm]","stdev(CH4) [ppm]","CO2 [ppm]","stdev(CO2) [ppm]","H2O [ppm]","stdev(H2O)","p_LGR [torr]","T_LGR [C]","mt1_LGR [us]","mt2_LGR [us]","T_ECpre [C]","T_EC1 [C]","T_EC2 [C]","p_inlet [hPa]","p_in [hPa]","p_out [hPa]","T_inlet [C]","RH_inlet [%]","dwpt_inlet [C]","T_vent [C]","RH_vent [%]","dwpt_vent [C]","flow_vent [l min-1]","flow_inlet [l min-1]","dwpt_sample [C]","T_room [C]"
2012-12-15 00:00:00,0.0,1.9233,0.0010,-1.00,0.00,231.5,32.8,138.09,29.16,24.65,36.55,0.04,-272.75,-272.75,-41,555,-910,23.0,5.4,-17.7,23.1,5.5,-17.4,5.73,2.33,-23.8,28.1
2012-12-15 00:01:00,0.0,1.9234,0.0008,-1.00,0.00,226.1,30.2,138.09,29.16,24.65,36.55,0.04,-272.75,-272.75,-41,556,-910,23.0,5.4,-17.7,23.1,5.5,-17.4,5.73,2.39,-23.8,28.1
2012-12-15 00:02:00,0.0,1.9234,0.0009,-1.00,0.00,221.8,31.5,138.09,29.15,24.65,36.55,0.04,-272.75,-272.75,-41,555,-910,23.0,5.4,-17.7,23.1,5.5,-17.4,5.73,2.34,-23.8,28.1
2012-12-15 00:03:00,0.0,1.9232,0.0009,-1.00,0.00,213.0,30.1,138.09,29.14,24.65,36.55,0.04,-272.75,-272.75,-41,555,-910,23.0,5.4,-17.7,23.1,5.6,-17.3,5.73,2.29,-23.8,28.1
2012-12-15 00:04:00,0.0,1.9230,0.0007,-1.00,0.00,223.9,30.8,138.09,29.14,24.66,36.55,0.04,-272.75,-272.75,-42,555,-910,23.0,5.4,-17.7,23.1,5.5,-17.4,5.73,2.34,-23.8,28.1
2012-12-15 00:05:00,0.0,1.9234,0.0007,-1.00,0.00,217.5,32.1,138.09,29.14,24.65,36.55,0.04,-272.75,-272.75,-41,555,-910,23.0,5.4,-17.7,23.1,5.5,-17.4,5.73,2.39,-23.8,28.1
2012-12-15 00:06:00,0.0,1.9234,0.0009,-1.00,0.00,224.5,37.9,138.09,29.13,24.66,36.55,0.04,-272.75,-272.75,-41,556,-910,23.0,5.4,-17.7,23.1,5.5,-17.4,5.73,2.36,-23.8,28.1
2012-12-15 00:07:00,0.0,1.9239,0.0009,-1.00,0.00,226.7,29.5,138.09,29.13,24.65,36.56,0.04,-272.75,-272.75,-41,555,-910,23.0,5.4,-17.7,23.1,5.5,-17.4,5.73,2.29,-23.8,28.1
2012-12-15 00:08:00,0.0,1.9239,0.0011,-1.00,0.00,216.3,32.1,138.09,29.12,24.65,36.55,0.04,-272.75,-272.75,-41,555,-910,23.0,5.4,-17.8,23.1,5.5,-17.5,5.73,2.32,-23.8,28.1
2012-12-15 00:09:00,0.0,1.9235,0.0009,-1.00,0.00,225.9,27.6,138.09,29.12,24.65,36.55,0.04,-272.74,-272.75,-41,555,-910,23.0,5.4,-17.8,23.1,5.5,-17.5,5.73,2.39,-23.8,28.0
2012-12-15 00:10:00,0.0,1.9235,0.0010,-1.00,0.00,217.5,29.6,138.09,29.11,24.65,36.55,0.04,-272.75,-272.75,-41,556,-910,23.0,5.4,-17.8,23.1,5.5,-17.5,5.73,2.37,-23.8,28.0
2012-12-15 00:11:00,0.0,1.9235,0.0009,-1.00,0.00,223.3,33.0,138.09,29.11,24.65,36.56,0.04,-272.75,-272.75,-41,555,-910,23.0,5.4,-17.8,23.1,5.5,-17.5,5.73,2.30,-23.8,28.1
2012-12-15 00:12:00,0.0,1.9235,0.0009,-1.00,0.00,226.1,28.4,138.09,29.11,24.65,36.55,0.04,-272.75,-272.75,-41,555,-910,23.0,5.4,-17.9,23.1,5.5,-17.5,5.73,2.31,-23.8,28.0
2012-12-15 00:13:00,0.0,1.9240,0.0010,-1.00,0.00,216.9,34.2,138.09,29.10,24.65,36.55,0.04,-272.75,-272.75,-41,555,-910,23.0,5.4,-17.9,23.1,5.5,-17.5,5.73,2.38,-23.8,28.0
2012-12-15 00:14:00,0.0,1.9238,0.0009,-1.00,0.00,214.1,29.4,138.09,29.10,24.65,36.55,0.04,-272.75,-272.75,-41,555,-910,23.0,5.3,-17.9,23.1,5.5,-17.5,5.73,2.38,-23.8,28.0
2012-12-15 00:15:00,0.0,1.9238,0.0009,-1.00,0.00,223.8,31.5,138.09,29.09,24.65,36.56,0.04,-272.75,-272.75,-41,555,-910,23.0,5.3,-17.9,23.0,5.5,-17.6,5.73,2.32,-23.8,28.0
2012-12-15 00:16:00,0.0,1.9236,0.0008,-1.00,0.00,222.0,33.8,138.09,29.09,24.66,36.55,0.04,-272.75,-272.75,-41,555,-910,23.0,5.4,-17.9,23.1,5.5,-17.5,5.73,2.29,-23.8,28.0
2012-12-15 00:17:00,0.0,1.9239,0.0008,-1.00,0.00,224.3,33.0,138.09,29.08,24.65,36.55,0.04,-272.75,-272.75,-41,555,-910,23.0,5.3,-17.9,23.1,5.5,-17.6,5.73,2.37,-23.8,28.0
2012-12-15 00:18:00,0.0,1.9241,0.0009,-1.00,0.00,223.7,36.2,138.09,29.07,24.65,36.55,0.04,-272.75,-272.75,-41,555,-910,23.0,5.3,-18.0,23.1,5.5,-17.6,5.73,2.39,-23.8,28.0
2012-12-15 00:19:00,0.0,1.9241,0.0010,-1.00,0.00,216.7,30.0,138.09,29.07,24.65,36.55,0.04,-272.75,-272.75,-41,555,-910,23.0,5.3,-18.0,23.0,5.5,-17.6,5.73,2.32,-23.8,28.0
2012-12-15 00:20:00,0.0,1.9241,0.0009,-1.00,0.00,225.5,30.6,138.09,29.06,24.65,36.56,0.04,-272.74,-272.75,-41,555,-910,22.9,5.3,-18.0,23.1,5.4,-17.6,5.73,2.29,-23.8,28.0
2012-12-15 00:21:00,0.0,1.9238,0.0008,-1.00,0.00,227.3,35.9,138.09,29.06,24.65,36.56,0.04,-272.75,-272.75,-41,555,-910,22.9,5.3,-18.1,23.0,5.4,-17.7,5.73,2.35,-23.8,28.0
2012-12-15 00:22:00,0.0,1.9240,0.0010,-1.00,0.00,213.1,27.8,138.10,29.06,24.66,36.55,0.04,-272.75,-272.75,-41,555,-910,22.9,5.3,-18.0,23.0,5.4,-17.7,5.73,2.40,-23.8,28.0
2012-12-15 00:23:00,0.0,1.9242,0.0008,-1.00,0.00,219.3,31.0,138.10,29.05,24.65,36.55,0.04,-272.75,-272.75,-41,555,-910,22.9,5.3,-18.0,23.0,5.4,-17.7,5.73,2.34,-23.8,28.0
2012-12-15 00:24:00,0.0,1.9240,0.0007,-1.00,0.00,225.0,31.9,138.09,29.05,24.65,36.56,0.04,-272.75,-272.75,-41,555,-910,22.9,5.3,-18.0,23.0,5.4,-17.7,5.73,2.29,-23.8,28.0
2012-12-15 00:25:00,0.0,1.9239,0.0008,-1.00,0.00,225.5,36.3,138.09,29.04,24.66,36.56,0.04,-272.75,-272.75,-41,555,-910,22.9,5.3,-18.0,23.0,5.4,-17.7,5.73,2.33,-23.8,28.0
2012-12-15 00:26:00,0.0,1.9243,0.0008,-1.00,0.00,224.7,35.1,138.09,29.04,24.65,36.55,0.04,-272.74,-272.75,-41,555,-910,22.9,5.3,-18.0,23.0,5.4,-17.7,5.73,2.39,-23.8,28.0
2012-12-15 00:27:00,0.0,1.9243,0.0009,-1.00,0.00,225.3,38.5,138.09,29.04,24.65,36.55,0.04,-272.75,-272.75,-41,555,-910,22.9,5.3,-18.0,23.0,5.4,-17.7,5.73,2.36,-23.8,28.0
2012-12-15 00:28:00,0.0,1.9245,0.0010,-1.00,0.00,226.4,36.2,138.09,29.03,24.65,36.55,0.04,-272.75,-272.75,-41,555,-910,22.9,5.3,-18.0,23.0,5.4,-17.7,5.73,2.29,-23.8,28.0
2012-12-15 00:29:00,0.0,1.9245,0.0010,-1.00,0.00,218.6,30.6,138.10,29.03,24.65,36.55,0.04,-272.75,-272.74,-41,555,-910,22.9,5.3,-18.0,23.0,5.4,-17.7,5.73,2.31,-23.8,28.0
2012-12-15 00:30:00,0.0,1.9245,0.0009,-1.00,0.00,221.9,26.9,138.10,29.03,24.65,36.55,0.04,-272.75,-272.75,-41,555,-910,22.9,5.3,-18.0,23.0,5.4,-17.7,5.73,2.39,-23.8,28.0
2012-12-15 00:31:00,0.0,1.9245,0.0009,-1.00,0.00,223.6,29.9,138.10,29.02,24.65,36.55,0.04,-272.75,-272.75,-41,555,-910,22.9,5.3,-18.1,23.0,5.4,-17.7,5.73,2.38,-23.8,28.0
2012-12-15 00:32:00,0.0,1.9243,0.0009,-1.00,0.00,223.6,29.4,138.10,29.02,24.65,36.55,0.04,-272.75,-272.75,-41,555,-910,22.9,5.3,-18.1,23.0,5.4,-17.7,5.73,2.30,-23.8,28.0
2012-12-15 00:33:00,0.0,1.9247,0.0009,-1.00,0.00,221.1,25.3,138.10,29.01,24.65,36.56,0.04,-272.75,-272.74,-41,555,-910,22.9,5.3,-18.1,23.0,5.4,-17.7,5.73,2.31,-23.8,28.0
2012-12-15 00:34:00,0.0,1.9246,0.0009,-1.00,0.00,221.7,33.9,138.10,29.01,24.65,36.56,0.04,-272.75,-272.75,-41,555,-910,22.9,5.3,-18.0,23.0,5.4,-17.7,5.73,2.39,-23.8,28.0
2012-12-15 00:35:00,0.0,1.9243,0.0009,-1.00,0.00,219.4,31.9,138.10,29.01,24.66,36.56,0.04,-272.75,-272.75,-41,555,-910,22.9,5.3,-18.0,23.0,5.4,-17.7,5.73,2.38,-23.8,28.0
2012-12-15 00:36:00,0.0,1.9244,0.0009,-1.00,0.00,220.4,31.6,138.10,29.00,24.65,36.55,0.04,-272.74,-272.75,-41,555,-910,22.9,5.3,-18.0,23.0,5.4,-17.7,5.73,2.31,-23.8,28.0
2012-12-15 00:37:00,0.0,1.9248,0.0009,-1.00,0.00,220.6,35.4,138.10,29.00,24.65,36.56,0.04,-272.75,-272.75,-41,555,-910,22.9,5.3,-18.1,23.0,5.4,-17.7,5.73,2.30,-23.8,28.0
2012-12-15 00:38:00,0.0,1.9246,0.0008,-1.00,0.00,221.8,38.1,138.10,28.99,24.65,36.56,0.04,-272.75,-272.75,-41,555,-910,22.9,5.3,-18.1,23.0,5.4,-17.7,5.73,2.36,-23.8,27.9
2012-12-15 00:39:00,0.0,1.9244,0.0010,-1.00,0.00,220.9,30.3,138.10,28.99,24.65,36.56,0.04,-272.75,-272.75,-41,555,-910,22.9,5.3,-18.1,23.0,5.4,-17.8,5.73,2.39,-23.8,28.0
2012-12-15 00:40:00,0.0,1.9248,0.0010,-1.00,0.00,223.0,27.2,138.10,28.98,24.65,36.55,0.04,-272.75,-272.75,-41,555,-910,22.9,5.3,-18.2,23.0,5.4,-17.8,5.73,2.33,-23.8,28.0
2012-12-15 00:41:00,0.0,1.9248,0.0009,-1.00,0.00,227.6,34.8,138.10,28.98,24.65,36.55,0.04,-272.75,-272.75,-41,555,-910,22.9,5.3,-18.2,23.0,5.4,-17.8,5.73,2.28,-23.8,28.0
2012-12-15 00:42:00,0.0,1.9250,0.0011,-1.00,0.00,226.8,33.7,138.10,28.98,24.65,36.55,0.04,-272.75,-272.75,-41,555,-910,22.9,5.3,-18.2,23.0,5.4,-17.8,5.73,2.35,-23.8,27.9
2012-12-15 00:43:00,0.0,1.9247,0.0008,-1.00,0.00,226.1,27.8,138.10,28.97,24.65,36.55,0.04,-272.75,-272.75,-41,555,-910,22.8,5.3,-18.2,22.9,5.4,-17.8,5.73,2.40,-23.8,27.9
2012-12-15 00:44:00,0.0,1.9247,0.0007,-1.00,0.00,219.0,32.6,138.10,28.97,24.65,36.56,0.04,-272.75,-272.75,-41,555,-909,22.9,5.3,-18.2,23.0,5.4,-17.8,5.73,2.33,-23.8,27.9
2012-12-15 00:45:00,0.0,1.9249,0.0009,-1.00,0.00,218.8,33.2,138.10,28.97,24.65,36.55,0.04,-272.75,-272.75,-41,555,-910,22.9,5.3,-18.2,23.0,5.4,-17.8,5.73,2.29,-23.8,27.9
2012-12-15 00:46:00,0.0,1.9252,0.0010,-1.00,0.00,222.6,30.9,138.10,28.96,24.65,36.55,0.04,-272.75,-272.74,-41,555,-910,22.8,5.3,-18.2,23.0,5.4,-17.8,5.73,2.34,-23.8,27.9
2012-12-15 00:47:00,0.0,1.9250,0.0010,-1.00,0.00,218.9,29.7,138.10,28.96,24.65,36.55,0.04,-272.75,-272.75,-41,555,-910,22.9,5.3,-18.2,23.0,5.4,-17.8,5.73,2.39,-23.8,27.9
2012-12-15 00:48:00,0.0,1.9253,0.0008,-1.00,0.00,213.4,36.4,138.10,28.95,24.65,36.56,0.04,-272.75,-272.75,-41,555,-910,22.8,5.3,-18.2,22.9,5.4,-17.9,5.73,2.36,-23.8,27.9
2012-12-15 00:49:00,0.0,1.9249,0.0009,-1.00,0.00,222.5,30.2,138.10,28.95,24.65,36.56,0.04,-272.75,-272.75,-41,555,-910,22.8,5.2,-18.2,22.9,5.4,-17.9,5.73,2.30,-23.8,27.9
2012-12-15 00:50:00,0.0,1.9251,0.0009,-1.00,0.00,222.8,25.6,138.10,28.94,24.65,36.56,0.04,-272.74,-272.75,-41,555,-909,22.8,5.2,-18.2,22.9,5.4,-17.9,5.73,2.31,-23.8,27.9
2012-12-15 00:51:00,0.0,1.9249,0.0008,-1.00,0.00,215.3,36.8,138.10,28.94,24.65,36.55,0.04,-272.75,-272.75,-41,555,-909,22.9,5.3,-18.2,22.9,5.4,-17.9,5.73,2.37,-23.8,27.9
2012-12-15 00:52:00,0.0,1.9253,0.0008,-1.00,0.00,227.7,32.6,138.10,28.94,24.65,36.56,0.04,-272.75,-272.75,-41,555,-910,22.8,5.3,-18.2,22.9,5.4,-17.9,5.73,2.38,-23.8,27.9
2012-12-15 00:53:00,0.0,1.9250,0.0011,-1.00,0.00,219.6,35.7,138.10,28.93,24.65,36.55,0.04,-272.75,-272.75,-41,555,-910,22.8,5.3,-18.2,22.9,5.4,-17.9,5.73,2.31,-23.8,27.9
2012-12-15 00:54:00,0.0,1.9253,0.0010,-1.00,0.00,220.3,35.0,138.10,28.93,24.65,36.55,0.04,-272.75,-272.75,-41,555,-909,22.9,5.3,-18.2,22.9,5.4,-17.9,5.73,2.30,-23.8,27.9
2012-12-15 00:55:00,0.0,1.9249,0.0009,-1.00,0.00,220.0,34.9,138.10,28.92,24.65,36.56,0.04,-272.75,-272.75,-41,555,-909,22.8,5.3,-18.2,22.9,5.4,-17.8,5.73,2.36,-23.8,27.9
2012-12-15 00:56:00,0.0,1.9249,0.0010,-1.00,0.00,214.5,36.8,138.10,28.92,24.65,36.55,0.04,-272.75,-272.75,-41,555,-909,22.8,5.3,-18.1,22.9,5.4,-17.8,5.73,2.39,-23.8,27.9
2012-12-15 00:57:00,0.0,1.9253,0.0007,-1.00,0.00,215.3,30.7,138.10,28.91,24.65,36.56,0.04,-272.75,-272.75,-41,555,-909,22.8,5.3,-18.2,22.9,5.4,-17.8,5.73,2.34,-23.8,27.9
2012-12-15 00:58:00,0.0,1.9249,0.0009,-1.00,0.00,221.1,30.2,138.10,28.91,24.65,36.56,0.04,-272.75,-272.75,-41,555,-910,22.8,5.3,-18.1,22.9,5.4,-17.8,5.73,2.29,-23.8,27.9
2012-12-15 00:59:00,0.0,1.9252,0.0009,-1.00,0.00,218.1,31.3,138.10,28.91,24.65,36.56,0.04,-272.75,-272.75,-41,555,-909,22.8,5.3,-18.1,22.9,5.4,-17.7,5.73,2.33,-23.8,27.9
2012-12-15 01:00:00,0.0,1.9256,0.0006,-1.00,0.00,213.8,32.4,138.10,28.90,24.65,36.55,0.04,-272.75,-272.75,-41,555,-909,22.8,5.3,-18.1,22.9,5.4,-17.8,5.73,2.39,-23.8,27.9
2012-12-15 01:01:00,0.0,1.9251,0.0011,-1.00,0.00,218.9,33.9,138.10,28.89,24.65,36.56,0.04,-272.75,-272.75,-41,555,-909,22.8,5.3,-18.1,22.9,5.4,-17.8,5.73,2.37,-23.9,27.9
2012-12-15 01:02:00,0.0,1.9252,0.0010,-1.00,0.00,215.7,31.3,138.10,28.89,24.65,36.55,0.04,-272.75,-272.75,-41,555,-909,22.8,5.3,-18.1,22.9,5.4,-17.8,5.73,2.29,-23.8,27.8
2012-12-15 01:03:00,0.0,1.9253,0.0010,-1.00,0.00,219.0,29.9,138.10,28.88,24.65,36.56,0.04,-272.75,-272.75,-41,555,-909,22.8,5.3,-18.1,22.9,5.4,-17.8,5.73,2.31,-23.8,27.9
2012-12-15 01:04:00,0.0,1.9248,0.0009,-1.00,0.00,221.5,36.2,138.10,28.88,24.65,36.56,0.04,-272.75,-272.75,-41,555,-909,22.8,5.3,-18.2,22.9,5.4,-17.8,5.73,2.39,-23.8,27.8
2012-12-15 01:05:00,0.0,1.9250,0.0009,-1.00,0.00,215.5,34.9,138.10,28.88,24.65,36.56,0.04,-272.75,-272.75,-41,555,-909,22.8,5.3,-18.2,22.9,5.4,-17.8,5.73,2.38,-23.8,27.9
2012-12-15 01:06:00,0.0,1.9252,0.0009,-1.00,0.00,213.1,33.9,138.10,28.87,24.65,36.55,0.04,-272.75,-272.75,-41,555,-909,22.8,5.3,-18.1,22.9,5.4,-17.8,5.73,2.30,-23.9,27.9
2012-12-15 01:07:00,0.0,1.9252,0.0007,-1.00,0.00,217.3,30.5,138.10,28.87,24.65,36.56,0.04,-272.75,-272.75,-41,555,-909,22.8,5.3,-18.2,22.9,5.4,-17.8,5.73,2.29,-23.8,27.8
2012-12-15 01:08:00,0.0,1.9252,0.0007,-1.00,0.00,217.4,28.2,138.10,28.87,24.65,36.55,0.04,-272.75,-272.75,-41,555,-910,22.8,5.3,-18.2,22.9,5.4,-17.8,5.73,2.36,-23.9,27.8
2012-12-15 01:09:00,0.0,1.9257,0.0009,-1.00,0.00,214.4,31.1,138.10,28.87,24.65,36.56,0.04,-272.75,-272.75,-41,555,-909,22.8,5.3,-18.2,22.9,5.4,-17.9,5.73,2.39,-23.9,27.9
2012-12-15 01:10:00,0.0,1.9251,0.0008,-1.00,0.00,216.4,33.2,138.10,28.86,24.65,36.56,0.04,-272.75,-272.75,-41,555,-910,22.8,5.3,-18.2,22.9,5.4,-17.8,5.73,2.32,-23.9,27.9
2012-12-15 01:11:00,0.0,1.9254,0.0010,-1.00,0.00,225.4,31.4,138.10,28.86,24.65,36.56,0.04,-272.75,-272.75,-41,555,-909,22.8,5.3,-18.2,22.9,5.4,-17.9,5.73,2.29,-23.9,27.9
2012-12-15 01:12:00,0.0,1.9253,0.0008,-1.00,0.00,222.5,30.2,138.10,28.85,24.65,36.56,0.04,-272.75,-272.75,-41,555,-909,22.8,5.3,-18.2,22.9,5.4,-17.9,5.73,2.35,-23.9,27.9
2012-12-15 01:13:00,0.0,1.9253,0.0008,-1.00,0.00,211.2,32.8,138.10,28.85,24.65,36.56,0.04,-272.75,-272.74,-41,555,-909,22.8,5.3,-18.2,22.9,5.4,-17.9,5.73,2.40,-23.9,27.8
2012-12-15 01:14:00,0.0,1.9250,0.0008,-1.00,0.00,212.8,28.6,138.10,28.84,24.66,36.56,0.04,-272.75,-272.75,-41,555,-909,22.8,5.3,-18.2,22.9,5.4,-17.9,5.73,2.34,-23.9,27.8
2012-12-15 01:15:00,0.0,1.9253,0.0008,-1.00,0.00,219.4,32.3,138.10,28.84,24.65,36.56,0.04,-272.75,-272.75,-41,555,-909,22.8,5.2,-18.3,22.9,5.4,-17.9,5.73,2.28,-23.8,27.9
2012-12-15 01:16:00,0.0,1.9252,0.0011,-1.00,0.00,226.4,38.0,138.10,28.83,24.65,36.55,0.04,-272.75,-272.75,-41,555,-909,22.8,5.2,-18.3,22.9,5.4,-18.0,5.73,2.33,-23.8,27.9
2012-12-15 01:17:00,0.0,1.9254,0.0009,-1.00,0.00,223.9,38.2,138.10,28.83,24.65,36.56,0.04,-272.74,-272.75,-41,555,-909,22.8,5.2,-18.3,22.9,5.3,-18.0,5.73,2.39,-23.9,27.9
2012-12-15 01:18:00,0.0,1.9254,0.0009,-1.00,0.00,219.4,30.1,138.10,28.83,24.65,36.56,0.04,-272.75,-272.75,-41,555,-909,22.8,5.2,-18.3,22.9,5.4,-18.0,5.73,2.36,-23.8,27.8
2012-12-15 01:19:00,0.0,1.9255,0.0011,-1.00,0.00,223.7,31.0,138.10,28.83,24.65,36.55,0.04,-272.75,-272.75,-41,555,-909,22.8,5.2,-18.4,22.9,5.3,-18.0,5.73,2.29,-23.8,27.9
2012-12-15 01:20:00,0.0,1.9257,0.0008,-1.00,0.00,223.1,31.3,138.10,28.82,24.65,36.56,0.04,-272.75,-272.75,-41,555,-909,22.8,5.2,-18.4,22.9,5.3,-18.0,5.73,2.32,-23.8,27.8
2012-12-15 01:21:00,0.0,1.9259,0.0009,-1.00,0.00,226.0,35.4,138.10,28.82,24.65,36.56,0.04,-272.75,-272.75,-41,554,-909,22.8,5.2,-18.3,22.9,5.3,-18.0,5.73,2.39,-23.9,27.8
2012-12-15 01:22:00,0.0,1.9258,0.0008,-1.00,0.00,234.0,38.3,138.10,28.81,24.65,36.56,0.04,-272.75,-272.75,-41,555,-909,22.8,5.2,-18.4,22.9,5.3,-18.1,5.73,2.37,-23.8,27.8
2012-12-15 01:23:00,0.0,1.9258,0.0009,-1.00,0.00,222.0,32.8,138.10,28.81,24.65,36.56,0.04,-272.75,-272.75,-41,555,-909,22.8,5.2,-18.4,22.9,5.3,-18.1,5.73,2.30,-23.9,27.8
2012-12-15 01:24:00,0.0,1.9259,0.0008,-1.00,0.00,219.5,31.3,138.10,28.81,24.65,36.56,0.04,-272.75,-272.75,-41,555,-909,22.8,5.2,-18.4,22.8,5.3,-18.1,5.73,2.30,-23.8,27.8
2012-12-15 01:25:00,0.0,1.9259,0.0009,-1.00,0.00,219.8,32.8,138.10,28.80,24.65,36.55,0.04,-272.75,-272.75,-41,555,-909,22.8,5.1,-18.5,22.9,5.3,-18.2,5.73,2.37,-23.8,27.9
2012-12-15 01:26:00,0.0,1.9259,0.0010,-1.00,0.00,216.2,31.2,138.10,28.80,24.65,36.56,0.04,-272.75,-272.75,-41,555,-909,22.8,5.2,-18.5,22.9,5.3,-18.2,5.73,2.39,-23.8,27.9
2012-12-15 01:27:00,0.0,1.9258,0.0009,-1.00,0.00,225.8,37.3,138.10,28.80,24.65,36.55,0.04,-272.75,-272.75,-41,554,-909,22.8,5.1,-18.5,22.9,5.3,-18.2,5.73,2.32,-23.9,27.9
2012-12-15 01:28:00,0.0,1.9259,0.0007,-1.00,0.00,223.4,30.0,138.10,28.79,24.65,36.56,0.04,-272.75,-272.75,-41,555,-909,22.8,5.1,-18.5,22.8,5.3,-18.2,5.73,2.29,-23.9,27.9
2012-12-15 01:29:00,0.0,1.9264,0.0010,-1.00,0.00,218.5,29.5,138.10,28.79,24.65,36.56,0.04,-272.75,-272.75,-41,554,-910,22.8,5.1,-18.5,22.8,5.3,-18.2,5.73,2.36,-23.8,27.8
2012-12-15 01:30:00,0.0,1.9261,0.0009,-1.00,0.00,217.7,27.9,138.10,28.79,24.65,36.56,0.04,-272.74,-272.75,-41,555,-909,22.8,5.1,-18.5,22.8,5.3,-18.2,5.73,2.39,-23.8,27.8
2012-12-15 01:31:00,0.0,1.9257,0.0008,-1.00,0.00,226.6,32.6,138.10,28.78,24.65,36.56,0.04,-272.75,-272.75,-41,555,-909,22.8,5.1,-18.5,22.8,5.3,-18.2,5.73,2.34,-23.8,27.8
2012-12-15 01:32:00,0.0,1.9259,0.0009,-1.00,0.00,215.6,30.4,138.10,28.78,24.65,36.56,0.04,-272.75,-272.75,-41,555,-909,22.8,5.2,-18.5,22.8,5.3,-18.2,5.73,2.29,-23.8,27.8
2012-12-15 01:33:00,0.0,1.9261,0.0007,-1.00,0.00,218.9,35.6,138.10,28.78,24.65,36.56,0.04,-272.75,-272.75,-41,555,-909,22.8,5.2,-18.4,22.8,5.3,-18.1,5.73,2.34,-23.8,27.8
2012-12-15 01:34:00,0.0,1.9258,0.0009,-1.00,0.00,221.9,34.2,138.10,28.77,24.65,36.56,0.04,-272.75,-272.75,-41,555,-909,22.8,5.2,-18.4,22.8,5.3,-18.1,5.73,2.39,-23.9,27.8
2012-12-15 01:35:00,0.0,1.9261,0.0009,-1.00,0.00,214.6,33.0,138.10,28.77,24.65,36.56,0.04,-272.75,-272.75,-41,554,-909,22.8,5.2,-18.4,22.8,5.3,-18.2,5.73,2.35,-23.9,27.8
2012-12-15 01:36:00,0.0,1.9262,0.0010,-1.00,0.00,216.5,31.3,138.10,28.77,24.65,36.56,0.04,-272.75,-272.74,-41,555,-909,22.8,5.2,-18.4,22.8,5.3,-18.1,5.73,2.29,-23.9,27.8
2012-12-15 01:37:00,0.0,1.9260,0.0007,-1.00,0.00,232.0,33.9,138.10,28.77,24.65,36.56,0.04,-272.75,-272.75,-41,555,-909,22.8,5.2,-18.4,22.8,5.3,-18.1,5.73,2.32,-23.9,27.8
2012-12-15 01:38:00,0.0,1.9260,0.0009,-1.00,0.00,216.7,34.8,138.10,28.77,24.65,36.56,0.04,-272.75,-272.75,-41,555,-909,22.8,5.2,-18.4,22.8,5.3,-18.2,5.73,2.39,-23.9,27.8
2012-12-15 01:39:00,0.0,1.9262,0.0008,-1.00,0.00,218.1,34.8,138.10,28.76,24.65,36.56,0.04,-272.75,-272.75,-41,555,-909,22.7,5.2,-18.4,22.8,5.3,-18.1,5.73,2.37,-23.9,27.8
2012-12-15 01:40:00,0.0,1.9259,0.0008,-1.00,0.00,218.5,32.4,138.10,28.76,24.65,36.56,0.04,-272.75,-272.74,-41,555,-909,22.8,5.2,-18.4,22.8,5.3,-18.1,5.73,2.29,-23.8,27.8
2012-12-15 01:41:00,0.0,1.9262,0.0010,-1.00,0.00,220.2,31.3,138.10,28.76,24.65,36.56,0.04,-272.75,-272.75,-41,554,-909,22.8,5.2,-18.4,22.8,5.3,-18.1,5.73,2.32,-23.9,27.8
2012-12-15 01:42:00,0.0,1.9262,0.0009,-1.00,0.00,227.9,33.0,138.10,28.75,24.65,36.56,0.04,-272.75,-272.75,-41,555,-909,22.8,5.2,-18.4,22.8,5.3,-18.1,5.73,2.39,-23.8,27.8
2012-12-15 01:43:00,0.0,1.9263,0.0010,-1.00,0.00,221.1,34.3,138.10,28.75,24.65,36.56,0.04,-272.74,-272.75,-41,554,-909,22.7,5.2,-18.4,22.8,5.3,-18.1,5.73,2.37,-23.9,27.8
2012-12-15 01:44:00,0.0,1.9263,0.0007,-1.00,0.00,218.4,34.6,138.10,28.75,24.65,36.57,0.04,-272.75,-272.75,-41,555,-909,22.7,5.2,-18.4,22.8,5.3,-18.1,5.73,2.29,-23.8,27.8
2012-12-15 01:45:00,0.0,1.9263,0.0011,-1.00,0.00,220.9,28.3,138.10,28.75,24.65,36.56,0.04,-272.75,-272.75,-41,554,-910,22.7,5.2,-18.4,22.8,5.3,-18.1,5.73,2.31,-23.9,27.8
2012-12-15 01:46:00,0.0,1.9264,0.0010,-1.00,0.00,217.2,32.3,138.10,28.74,24.65,36.56,0.04,-272.75,-272.75,-41,554,-909,22.8,5.2,-18.4,22.8,5.3,-18.1,5.73,2.38,-23.9,27.8
2012-12-15 01:47:00,0.0,1.9262,0.0009,-1.00,0.00,225.9,29.4,138.10,28.73,24.65,36.57,0.04,-272.74,-272.75,-41,555,-909,22.8,5.2,-18.4,22.8,5.3,-18.1,5.73,2.38,-23.9,27.8
2012-12-15 01:48:00,0.0,1.9263,0.0009,-1.00,0.00,218.7,33.5,138.10,28.73,24.65,36.57,0.04,-272.75,-272.75,-41,555,-909,22.7,5.2,-18.4,22.8,5.3,-18.1,5.73,2.31,-23.9,27.8
2012-12-15 01:49:00,0.0,1.9266,0.0008,-1.00,0.00,217.0,33.0,138.10,28.72,24.65,36.56,0.04,-272.75,-272.75,-41,555,-909,22.8,5.2,-18.4,22.8,5.3,-18.1,5.73,2.29,-23.9,27.8
2012-12-15 01:50:00,0.0,1.9262,0.0009,-1.00,0.00,219.6,34.4,138.10,28.72,24.65,36.56,0.04,-272.75,-272.75,-41,555,-909,22.8,5.2,-18.4,22.8,5.3,-18.1,5.73,2.37,-23.9,27.8
2012-12-15 01:51:00,0.0,1.9267,0.0009,-1.00,0.00,212.9,33.7,138.10,28.72,24.65,36.56,0.04,-272.75,-272.75,-41,554,-909,22.8,5.2,-18.4,22.8,5.3,-18.1,5.73,2.39,-23.9,27.8
2012-12-15 01:52:00,0.0,1.9262,0.0009,-1.00,0.00,218.8,37.7,138.10,28.72,24.65,36.56,0.04,-272.75,-272.75,-41,555,-909,22.8,5.2,-18.4,22.8,5.3,-18.1,5.73,2.32,-23.9,27.8
2012-12-15 01:53:00,0.0,1.9261,0.0009,-1.00,0.00,212.4,27.7,138.10,28.71,24.65,36.57,0.04,-272.75,-272.74,-41,555,-909,22.7,5.2,-18.4,22.8,5.3,-18.1,5.73,2.29,-23.8,27.8
2012-12-15 01:54:00,0.0,1.9264,0.0009,-1.00,0.00,222.4,31.2,138.10,28.71,24.65,36.57,0.04,-272.75,-272.75,-41,555,-909,22.7,5.2,-18.4,22.8,5.3,-18.1,5.73,2.36,-23.9,27.8
2012-12-15 01:55:00,0.0,1.9264,0.0011,-1.00,0.00,212.6,31.2,138.10,28.71,24.65,36.57,0.04,-272.75,-272.75,-41,554,-909,22.8,5.2,-18.4,22.8,5.3,-18.1,5.73,2.39,-23.9,27.8
2012-12-15 01:56:00,0.0,1.9262,0.0009,-1.00,0.00,216.0,35.8,138.10,28.70,24.65,36.56,0.04,-272.74,-272.75,-41,555,-909,22.8,5.2,-18.4,22.8,5.3,-18.1,5.73,2.34,-23.9,27.8
2012-12-15 01:57:00,0.0,1.9264,0.0010,-1.00,0.00,226.1,28.6,138.10,28.70,24.65,36.56,0.04,-272.74,-272.75,-41,555,-909,22.7,5.2,-18.4,22.8,5.3,-18.1,5.73,2.29,-23.9,27.8
2012-12-15 01:58:00,0.0,1.9262,0.0011,-1.00,0.00,226.7,35.9,138.10,28.70,24.65,36.56,0.04,-272.75,-272.75,-41,554,-909,22.7,5.2,-18.4,22.8,5.3,-18.1,5.73,2.34,-23.9,27.8
2012-12-15 01:59:00,0.0,1.9261,0.0008,-1.00,0.00,215.9,37.1,138.10,28.70,24.65,36.56,0.04,-272.74,-272.75,-41,555,-909,22.8,5.2,-18.4,22.8,5.3,-18.1,5.73,2.40,-23.9,27.8
2012-12-15 02:00:00,0.0,1.9266,0.0010,-1.00,0.00,219.3,38.2,138.10,28.69,24.65,36.56,0.04,-272.75,-272.74,-41,554,-909,22.8,5.2,-18.4,22.8,5.3,-18.1,5.73,2.34,-23.8,27.8
2012-12-15 02:01:00,0.0,1.9265,0.0009,-1.00,0.00,214.1,33.5,138.10,28.69,24.65,36.57,0.04,-272.75,-272.75,-41,555,-909,22.7,5.2,-18.4,22.8,5.3,-18.1,5.73,2.28,-23.9,27.8
2012-12-15 02:02:00,0.0,1.9264,0.0008,-1.00,0.00,209.8,29.7,138.10,28.69,24.65,36.56,0.04,-272.75,-272.75,-41,554,-909,22.8,5.2,-18.4,22.8,5.3,-18.1,5.73,2.34,-23.8,27.8
2012-12-15 02:03:00,0.0,1.9268,0.0008,-1.00,0.00,215.4,27.6,138.10,28.68,24.65,36.56,0.04,-272.75,-272.75,-41,554,-909,22.7,5.2,-18.4,22.8,5.3,-18.1,5.73,2.39,-23.8,27.8
2012-12-15 02:04:00,0.0,1.9268,0.0009,-1.00,0.00,223.5,30.6,138.10,28.68,24.65,36.56,0.04,-272.75,-272.75,-41,555,-909,22.7,5.2,-18.3,22.8,5.3,-18.0,5.73,2.35,-23.9,27.8
2012-12-15 02:05:00,0.0,1.9265,0.0009,-1.00,0.00,218.0,33.7,138.10,28.68,24.65,36.57,0.04,-272.75,-272.75,-41,554,-909,22.8,5.2,-18.3,22.8,5.3,-18.0,5.73,2.29,-23.9,27.8
2012-12-15 02:06:00,0.0,1.9267,0.0008,-1.00,0.00,213.0,35.0,138.10,28.68,24.65,36.56,0.04,-272.75,-272.75,-41,555,-909,22.8,5.2,-18.3,22.8,5.3,-18.1,5.73,2.33,-23.9,27.8
2012-12-15 02:07:00,0.0,1.9268,0.0010,-1.00,0.00,218.2,29.9,138.10,28.67,24.65,36.56,0.04,-272.75,-272.75,-41,554,-909,22.8,5.2,-18.4,22.8,5.3,-18.1,5.73,2.39,-23.9,27.8
2012-12-15 02:08:00,0.0,1.9266,0.0008,-1.00,0.00,220.8,31.3,138.10,28.67,24.65,36.56,0.04,-272.75,-272.75,-41,554,-909,22.8,5.2,-18.4,22.8,5.3,-18.1,5.73,2.37,-23.9,27.8
2012-12-15 02:09:00,0.0,1.9267,0.0008,-1.00,0.00,225.8,27.6,138.10,28.67,24.65,36.56,0.04,-272.75,-272.74,-41,554,-909,22.8,5.2,-18.4,22.8,5.3,-18.1,5.73,2.29,-23.9,27.8
2012-12-15 02:10:00,0.0,1.9268,0.0010,-1.00,0.00,216.0,25.8,138.10,28.67,24.65,36.56,0.04,-272.74,-272.74,-41,554,-909,22.7,5.2,-18.4,22.8,5.3,-18.1,5.73,2.31,-23.9,27.8
2012-12-15 02:11:00,0.0,1.9266,0.0009,-1.00,0.00,212.0,35.9,138.10,28.66,24.65,36.57,0.04,-272.75,-272.75,-41,554,-909,22.7,5.2,-18.4,22.8,5.3,-18.1,5.73,2.39,-23.9,27.8
2012-12-15 02:12:00,0.0,1.9269,0.0010,-1.00,0.00,215.4,32.2,138.10,28.66,24.65,36.57,0.04,-272.75,-272.75,-41,554,-909,22.7,5.2,-18.4,22.8,5.3,-18.1,5.73,2.38,-23.9,27.8
2012-12-15 02:13:00,0.0,1.9269,0.0008,-1.00,0.00,214.4,42.0,138.10,28.66,24.65,36.57,0.04,-272.74,-272.75,-41,554,-909,22.8,5.2,-18.4,22.8,5.3,-18.0,5.73,2.30,-23.9,27.8
2012-12-15 02:14:00,0.0,1.9267,0.0008,-1.00,0.00,216.3,37.7,138.10,28.66,24.65,36.57,0.04,-272.75,-272.75,-41,554,-909,22.7,5.2,-18.3,22.8,5.3,-18.0,5.73,2.30,-23.9,27.8
2012-12-15 02:15:00,0.0,1.9267,0.0009,-1.00,0.00,224.3,35.0,138.10,28.65,24.65,36.57,0.04,-272.75,-272.75,-41,554,-909,22.7,5.2,-18.4,22.8,5.4,-18.0,5.73,2.38,-23.9,27.8
2012-12-15 02:16:00,0.0,1.9268,0.0009,-1.00,0.00,216.3,33.5,138.10,28.65,24.65,36.56,0.04,-272.75,-272.75,-41,555,-909,22.7,5.2,-18.3,22.8,5.4,-18.0,5.73,2.39,-23.9,27.8
2012-12-15 02:17:00,0.0,1.9265,0.0008,-1.00,0.00,222.5,32.2,138.10,28.65,24.65,36.56,0.04,-272.74,-272.75,-41,554,-909,22.7,5.2,-18.3,22.8,5.4,-18.0,5.73,2.31,-23.9,27.8